Location: Sobotiste
(48.7170°N, 17.4000°E)
Time: 09:06:25
(UTC+02:00)

AO-73 - Pass Details

Date: 15 March 2026
Orbit: 514 x 567 km, 97.8° (Epoch: 14 April)

Event Time Altitude Azimuth Distance (km) Brightness Sun altitude
Rises 05:05:42 0° 357° (N) 2,677 ? -10.4°
Reaches altitude 10° 05:08:41 10° 331° (NNW) 1,771 ? -10.0°
Maximum altitude 05:10:38 14° 300° (WNW) 1,538 ? -9.6°
Enters shadow 05:11:54 12° 279° (W) 1,632 ? -9.4°
